COSMOS 2251 DEB, 38054

Orbit data source: Space-Track

COSMOS 2251 DEB, 38054 is space debris in LEO originally from a launch on Wed, 16 Jun 1993 UTC launched from the Plesetsk Missile And Space Complex (PKMTR). The debris from Iridium 33, an American commercial communications satellite, has been tracked extensively since its accidental collision with the defunct Russian satellite Cosmos 2251 in 2009. This event, occurring at high speed in low Earth orbit (LEO), generated thousands of pieces of space debris, significantly increasing the risk of further collisions. The Iridium 33 debris cloud has impacted space traffic management and orbital debris mitigation strategies, making it a subject of ongoing study in space situational awareness.

Loading next visibility...
Identifier
38054, 1993-036BRL
Orbit
LEO
Country
Flag of CISCIS
Related business
Manufacturer
Unknown
Mission
Spacecraft
Bus & Motor
Unknown
Mass
Unknown
Launch date (UTC)
1993-06-16 (32 years ago)
Launch vehicle
Unknown
Launch site
Plesetsk Missile And Space Complex (PKMTR)
Object type
Payload
Rocket body
Debris
Shape & HBR
Unknown shape, 0.1 m
Radar Cross Section
Small (<0.1 m²)

Expand to show TLE details & history
Last TLE update: 8 hours ago

TLE from 8 hours ago
0 COSMOS 2251 DEB
1 38054U 93036BRL 25300.12646332  .00003381  00000-0  28602-2 0  9993
2 38054  73.9522 342.0426 0361913 328.7515  58.5563 13.61799812665450
Epoch: 2025-10-27T03:02Z
TLE epoch observation values (Epoch: 2025-10-27T03:02:06.430Z)
Latitude
29.6569°
Longitude
-89.8404°
Altitude
899.876 km
Speed
7.471 km/s
True Right ascension
23h 25m 40s
True Declination
29° 30' 44"
Sunlit
Object was in full shadow at epoch
Visualization orbit readout
Latitude
Unknown
Longitude
Unknown
Altitude
Unknown
Speed
Unknown
Apparent Right ascension
Unknown
Apparent Declination
Unknown
Sunlit
N/A
Visualization observer readout
Local Sidereal Time
06:01:55
Azimuth
Unknown
Elevation
Unknown
Doppler factor
Unknown
Orbital elements
Apogee altitude
1,294.864 km
Perigee altitude
758.871 km
Semi-major axis
7,405.005 km
Eccentricity
0.03619
Inclination
73.9522°
RAAN
342.0426°
Arg. of periapsis
328.7515°
True anomaly
62.17753°
Mean anomaly
58.5563°
Eccentric anomaly
60.35855°
Mean motion
3.40608 °/min
Orbital period
105.69 mins
BSTAR
0.0028602
Loading maneuver chart data...
Computing Atmospheric mass density...

Documentation

Showing up to 5 results
|